www.pogodaiklimat.ru

Погода и климат >> Архив погоды >> Румыния >> Бород


ПОГОДА в Бороде

  • Прогноз погоды в Бороде
  • Монитор погоды в Бороде

АРХИВ ПОГОДЫ в Бороде

Время (UTC), дата Ветер
(напр.,м/с)
 
Видим.   Явления Облачность Т
(С)
Тd
(С)
f
(%)
Тe
(С)
Тes
(С)
Комфортность P
(гПа)
Po
(гПа)
Тmin
(С)
Tmax
(С)
R
(мм)
R24
(мм)
S
(см)
15 13.07 З 4-7
{8}
20 км 10/6 600 м
[Cb calv Ac trans Ci fib]
+20.1 +13.0 64 +22 +23 комфорт 1009.6 971.1
18 13.07 В 1-2
{4}
20 км 10/6 600 м
[Cb calv Ac As]
+14.9 +12.5 86 +15 +15 1010.3 971.1 +14.2 +21.9
21 13.07 В 1-2
{4}
н/о н/о +13.7 +11.7 88 +14 +14 1010.7 971.3
00 14.07 ЮВ 2-2
{2}
н/о н/о +12.6 +11.6 94 +12 +12 1010.3 970.7
03 14.07 В 1-2
{2}
н/о н/о +12.8 +11.6 92 +13 +13 1010.0 970.5
06 14.07 штиль 0-1
{2}
20 км 10/0
[Ac As]
+14.8 +12.8 88 +14 +17 1009.5 970.3 +12.4 +15.0
09 14.07 СВ 1-3
{3}
н/о н/о +19.7 +12.7 64 +22 +22 комфорт 1009.1 970.5
12 14.07 С 2-4
{5}
20 км {ливн. осадки} 10/5 600 м
[Cb calv Ac As]
+19.1 +14.0 72 +21 +23 комфорт 1008.9 970.2 4
15 14.07 С 2-4
{5}
20 км 8/5 600 м
[Cb calv Ac trans]
+20.1 +14.3 69 +23 +25 комфорт 1008.6 970.1
18 14.07 СВ 2-2
{5}
20 км 8/5 600 м
[Cb calv Ac trans]
+18.7 +13.8 73 +20 +20 1009.2 970.5 +14.9 +21.6
21 14.07 штиль 0-1
{2}
н/о н/о +14.4 +13.7 96 +14 +14 1010.7 971.4 0.4
00 15.07 ЮВ 1-2
{2}
н/о н/о +12.6 +12.1 97 +12 +12 1011.0 971.4
03 15.07 ЮВ 1-1
{1}
н/о н/о +12.4 +12.1 98 +12 +12 1010.6 971.0
06 15.07 штиль 0-1
{1}
10 км 10/0
[As op]
+14.8 +13.1 90 +14 +16 1010.8 971.5 +12.3 +18.7
09 15.07 штиль 0-2
{5}
н/о н/о +19.1 +13.5 70 +20 +20 1010.4 971.7
12 15.07 С 3-6
{7}
20 км 8/8 600 м
[Cu med, cong]
+21.3 +11.6 54 +23 +26 комфорт 1010.0 971.6
15 15.07 С 5-8
{10}
20 км 4/4 600 м
[Cb calv]
+21.1 +9.4 47 +22 +24 комфорт 1010.3 971.8
18 15.07 СЗ 2-4
{7}
20 км 3/3 600 м
[Cu med, cong]
+20.7 +8.7 46 +23 +23 комфорт 1010.9 972.4 +14.8 +23.2
21 15.07 В 1-2
{3}
н/о н/о +13.3 +11.2 87 +13 +13 1013.1 973.5
00 16.07 В 1-2
{3}
н/о н/о +11.5 +9.9 90 +11 +11 1013.6 973.8
03 16.07 В 1-1
{3}
н/о н/о +9.5 +10 +10 1013.8 973.6
06 16.07 ЮВ 1-1
{2}
20 км ясно +15.9 +10.7 71 +17 +23 1013.0 973.8 +9.3 +20.7
09 16.07 СЗ 1-3
{3}
н/о н/о +20.7 +11.4 55 +24 +24 комфорт 1011.9 973.4
12 16.07 СЗ 1-4
{4}
20 км 6/6 600 м
[Cu med, cong]
+23.1 +9.8 43 +25 +32 комфорт 1011.4 973.2
15 16.07 СЗ 3-6
{6}
20 км 5/5 600 м
[Cu med, cong]
+24.1 +10.3 42 +25 +28 комфорт 1010.6 972.5
18 16.07 З 2-3
{4}
20 км ясно +21.4 +8.7 44 +23 +23 комфорт 1010.8 972.4 +15.9 +24.5
21 16.07 ЮВ 2-3
{4}
н/о н/о +13.6 +9.5 76 +13 +13 1012.9 973.3
00 17.07 В 2-3
{4}
н/о н/о +12.5 +9.0 79 +12 +12 1013.0 973.3
03 17.07 В 3-5
{5}
н/о н/о +12.4 +8.7 78 +11 +11 1012.0 972.3
06 17.07 С 1-2
{3}
20 км ясно +17.1 +10.7 66 +18 +25 1011.1 972.1 +11.7 +21.4
09 17.07 СЗ 3-5
{6}
н/о н/о +21.2 +11.7 55 +23 +23 комфорт 1010.8 972.4
12 17.07 СЗ 4-7
{7}
20 км 4/4 600 м
[Cu med, cong]
+23.1 +11.9 49 +26 +32 жарко 1010.4 972.2
15 17.07 СЗ 3-6
{8}
20 км 4/4 600 м
[Cu med, cong]
+23.4 +10.3 44 +25 +28 комфорт 1010.5 972.4
18 17.07 СВ 1-1
{5}
20 км 3/3 600 м
[Cu med, cong]
+20.5 +10.1 51 +23 +23 комфорт 1011.4 972.8 +16.9 +24.0
21 17.07 ЮВ 2-3
{4}
н/о н/о +13.8 +9.8 77 +13 +13 1013.0 973.5
00 18.07 ЮВ 2-4
{4}
н/о н/о +12.1 +9.1 82 +11 +11 1013.7 973.9
03 18.07 ЮВ 2-3
{3}
н/о н/о +10.5 +8.7 89 +9 +9 1014.0 974.0
06 18.07 В 1-2
{3}
20 км ясно +16.6 +11.1 70 +17 +24 1013.4 974.3 +9.7 +20.5
09 18.07 СЗ 2-4
{4}
н/о н/о +22.9 +11.5 49 +25 +25 комфорт 1012.7 974.4
12 18.07 СЗ 2-4
{5}
20 км 10/3 600 м
[Cu med, cong Ac As Cs]
+23.9 +11.6 46 +25 +31 комфорт 1012.9 974.7
15 18.07 З 3-5
{6}
20 км 10/3 600 м
[Cu med, cong Ac As Cs]
+23.6 +11.3 46 +25 +27 комфорт 1013.2 975.0
18 18.07 штиль 0-1
{2}
20 км 10/0
[Ac As Cs]
+20.9 +15.1 69 +24 +24 комфорт 1013.7 975.1 +16.6 +25.2
21 18.07 В 1-3
{3}
н/о н/о +17.1 +15.3 89 +18 +18 1015.4 976.3
00 19.07 ЮВ 2-2
{3}
н/о н/о +14.3 +13.2 93 +14 +14 1016.2 976.7 0.2
03 19.07 ЮВ 1-2
{3}
н/о н/о +12.5 +11.1 91 +12 +12 1017.4 977.5
06 19.07 В 1-2
{2}
20 км ясно +17.6 +12.8 73 +19 +25 1017.1 977.9 +11.2 +20.9
09 19.07 СЗ 1-4
{4}
н/о н/о +23.7 +12.1 48 +25 +25 комфорт 1016.8 978.4
12 19.07 С 2-5
{6}
20 км 4/4 600 м
[Cu med, cong]
+26.7 +10.6 36 +27 +37 жарко 1016.2 978.2
15 19.07 СЗ 2-5
{6}
20 км 3/3 600 м
[Cu med, cong]
+26.7 +10.1 35 +27 +31 жарко 1015.4 977.5
18 19.07 С 1-2
{3}
20 км 4/0
[Ci fib]
+23.3 +13.0 52 +26 +26 жарко 1016.3 977.9 +17.6 +27.5
21 19.07 ЮВ 1-3
{3}
н/о н/о +16.2 +11.4 73 +17 +17 1018.6 979.2
00 20.07 ЮВ 2-3
{4}
н/о н/о +14.7 +10.5 76 +14 +14 1019.3 979.7
03 20.07 ЮВ 1-3
{3}
н/о н/о +13.4 +10.5 83 +14 +14 1019.4 979.6
06 20.07 СВ 1-1
{2}
20 км 8/0
[Ac As]
+17.8 +13.5 76 +19 +22 1019.6 980.3 +13.2 +23.3
09 20.07 С 1-3
{3}
н/о н/о +26.3 +12.4 42 +28 +28 жарко 1018.7 980.6
12 20.07 З 1-4
{4}
20 км 5/5 600 м
[Cu med, cong]
+28.3 +14.8 44 +31 +40 душно 1018.3 980.5

 

Местоположение метеостанции Бород (Румыния): широта 46.98 долгота 22.60 высота над уровнем моря 317 м.

В архиве по умолчанию представлена погода в Бороде за последнюю неделю. Архивные данные за месяц целиком и за предыдущие месяцы, начиная с января 2011 года, Вы можете получить, выбрав интересующий диапазон дат из раскрывающегося списка и нажав кнопку "Ввод!".


*Определитесь, кто Вы:
робот инопланетянин человек

Внимание! Время в таблицах - всемирное. Для получения местного времени необходимо прибавить поправку, которая равна 2 ч.

Смотрите также архив погоды в соседних городах и на ближайших метеорологических станциях:

Погода на Станции Vladeasa 1800 (Румыния) (28 км)
Погода в Стана-де-Вале (Румыния) (33 км)
Погода в Хуедине (Румыния) (39 км)
Погода в Залэу (Румыния) (43 км)
Погода в Холоде (Румыния) (43 км)
Погода в Думбравита де Кодру (Румыния) (51 км)
Погода в Штее (Румыния) (51 км)
Погода в Орадя (Румыния) (53 км)
Погода в Сэкуени (Румыния) (56 км)
Погода в Супуру де Йос (Румыния) (56 км)

Пояснения к столбцам:

Ветер - указаны скорость ветра в м/с - средняя за 10 мин, порывы в срок и между сроками (в фигурных скобках) и направление, откуда дует ветер: С - северный, СВ - северо-восточный, В - восточный, ЮВ - юго-восточный, Ю - южный, ЮЗ - юго-западный, З - западный, СЗ - северо-западный.
Видимость - горизонтальная дальность видимости в метрах или километрах. При видимости от 1 до 10 км при отсутствии осадков обычно наблюдается дымка, при ухудшении видимости до 1 км и менее - туман. В сухую погоду видимость может ухудшаться дымом, пылью или мглою.
Явления - указаны атмосферные явления, наблюдавшиеся в срок или в последний час перед сроком; фигурными скобками обозначены явления, наблюдавшиеся между сроками (за 1-3 часа до срока); квадратными скобками обозначены град или гололедные отложения с указанием их диаметра в мм.
Облачность - указаны через наклонную черту общая и нижняя облачность в баллах и высота нижней границы облаков в метрах; квадратными скобками обозначены формы облаков: Ci - перистые, Cs - перисто-слоистые, Cc - перисто-кучевые, Ac - высококучевые, As - высокослоистые, Sc - слоисто-кучевые, Ns - слоисто-дождевые, Cu - кучевые, Cb - кучево-дождевые. Подробнее классификацию облаков см. в Атласе облаков (PDF).
T - Температура воздуха - температура, измеренная на высоте 2 м над землей.
Td - Температура точки росы - температура, при понижении до которой содержащийся в воздухе водяной пар достигнет насыщения.
f - Относительная влажность воздуха - влажноcть воздуха, измеренная на высоте 2 м над землей.
Te - Эффективная температура - температура, которую ощущает одетый по сезону человек в тени. Характеристика душности погоды. При расчете учитывается влияние влажности воздуха и скорости ветра на теплоощущения человека.
Tes - Эффективная температура на солнце - температура, которую ощущает человек, с поправкой на солнечный нагрев. Характеристика знойности погоды. Зависит от высоты солнца над горизонтом, облачности и скорости ветра. Ночью, в пасмурную погоду, а также при ветре 12 м/с и более поправка равна нулю.
P - Атмосферное давление - приведенное к уровню моря атмосферное давление.
Po - Атмосферное давление - измеренное на уровне метеостанции атмосферное давление.
Tmin - Минимальная температура - минимум температуры воздуха на высоте 2 м над землей.
Tmax - Максимальная температура - максимум температуры воздуха на высоте 2 м над землей.
R - Количество осадков - Количество выпавших осадков за период времени, мм. При наведении курсора мыши на число - период времени, за который выпало указанное количество осадков.
R24 - Количество осадков - Количество выпавших осадков за 24 часа, мм.
S - Снежный покров - Высота снежного покрова, см. При наведении курсора мыши на число - состояние снежного покрова и степень покрытия местности в баллах.